Regional Weather Roundup
Issued by NWS

Home | Current Version | Previous Version | Graphics & Text | Print | Product List | Glossary On
Versions: 1 2 3 4 5 6 7 8 9 10 11 12 13 14 15 16 17 18 19 20 21 22 23 24 25 26 27 28 29 30 31 32 33 34 35 36 37 38 39 40 41 42 43 44 45 46 47 48 49 50
000
ASUS43 KLSX 291507
RWRMO

WEATHER SUMMARY FOR MISSOURI
NATIONAL WEATHER SERVICE SPRINGFIELD MO
1000 AM CDT FRI JUL 29 2016

NOTE: "FAIR" INDICATES FEW OR NO CLOUDS BELOW 12,000 FEET WITH NO
       SIGNIFICANT WEATHER AND/OR OBSTRUCTIONS TO VISIBILITY.
       CURRENT SKY AND/OR WEATHER CONDITIONS ARE NOT AVAILABLE FOR
       CHILLICOTHE AND FARMINGTON.

MOZ001>031-035>038-043-044-053-054-291600-
...NORTHERN AND WESTERN MISSOURI...

CITY           SKY/WX    TMP DP  RH WIND       PRES   REMARKS
KANSAS CTY INT PTSUNNY   77  63  61 N6        30.03S
KANSAS C DTWN  MOSUNNY   79  64  60 NE5       30.01S
LEE`S SUMMIT   CLOUDY    75  65  70 E7        30.02S
ST JOSEPH      SUNNY     76  66  71 N9G18     30.02F
CHILLICOTHE      N/A     76  66  71 VRB3      30.02S
KIRKSVILLE     MOSUNNY   73  64  73 N5        30.01S

$$
MOZ066>068-077>081-088>096-101>105-291600-
...SOUTHWEST MISSOURI...

CITY           SKY/WX    TMP DP  RH WIND       PRES   REMARKS
SPRINGFIELD    CLOUDY    81  72  74 SW6       29.98F
JOPLIN         CLOUDY    77  69  76 CALM      30.00S
BRANSON        PTSUNNY   81  73  78 CALM      30.02S

$$
MOZ032>034-039>042-045>050-055>058-069>072-291600-
...CENTRAL MISSOURI...

CITY           SKY/WX    TMP DP  RH WIND       PRES   REMARKS
COLUMBIA       CLOUDY    74  68  81 CALM      30.00R
JEFFERSON CITY CLOUDY    76  69  79 VRB3      29.99R
ROLLA          CLOUDY    74  68  81 CALM      29.99R
SEDALIA        PTSUNNY   76  69  79 NE3       30.01F
WHITEMAN AFB   PTSUNNY   76  70  82 NE8       29.99F
OSAGE BEACH    CLOUDY    75  70  84 CALM      30.01R

$$
MOZ051-052-059>065-291600-
...EAST CENTRAL MISSOURI...

CITY           SKY/WX    TMP DP  RH WIND       PRES   REMARKS
ST LOUIS INTL  CLOUDY    81  68  64 VRB5      29.98R
SPIRIT OF STL  CLOUDY    80  70  71 CALM      29.96S
ST CHARLES     MOSUNNY   75  70  84 W3        29.96S

$$
MOZ072>076-082>087-097>100-106>115-291600-
...SOUTH CENTRAL AND SOUTHEAST MISSOURI...

CITY           SKY/WX    TMP DP  RH WIND       PRES   REMARKS
CAPE GIRARDEAU CLOUDY    75  71  87 W3        29.95F
FARMINGTON     SUNNY     79  72  79 NW3       29.99S
POPLAR BLUFF   SUNNY     79  72  79 SW3       29.95F
WEST PLAINS    SUNNY     81  70  69 CALM      30.02S

$$


USA.gov is the U.S. government's official web portal to all federal, state and local government web resources and services.